Hourly Data Report for November 09, 2019

All times are specified in Local Standard Time (LST). Add 1 hour to adjust for Daylight Saving Time where and when it is observed.

EUREKA CLIMATE
NUNAVUT
Current Station Operator: ECCC - MSC

79°59'21.000" N
85°56'02.000" W
10.00 m
2401199
71613
NEK

Download Data

Hourly Data (November 2019)
Hourly Data Report for November 9, 2019
TIME Temp Definition
°C
Dew Point Definition
°C
Rel Hum Definition
%
Wind Dir Definition
10's deg

Wind Spd Definition
km/h
Visibility Definition
km
Stn Press Definition
kPa
Hmdx Definition


Wind Chill Definition


Weather Definition


00:00 -32.6 -35.6 75 10 5   102.14   -39 LegendNANA
01:00 -33.5 -36.7 73 3 3   102.15   -37 LegendNANA
02:00 -33.1 -36.1 74 3 8   102.16   -42 LegendNANA
03:00 -33.6 -36.7 73 8 2   102.16   -36 LegendNANA
04:00 -32.9 -35.9 74 7 4   102.17   -38 LegendNANA
05:00 -33.2 -36.4 73 12 5   102.16   -39 LegendNANA
06:00 -33.8 -37.0 72 11 4   102.17   -39 LegendNANA
07:00 -33.7 -36.9 73 11 7   102.16   -42 LegendNANA
08:00 -35.2 -38.6 71 6 5   102.16   -42 LegendNANA
09:00 -33.6 -36.8 73 8 4   102.14   -38 LegendNANA
10:00 -34.5 -37.8 72 8 3   102.14   -38 LegendNANA
11:00 -33.9 -37.2 72 9 3   102.12   -38 LegendNANA
12:00 -33.7 -36.9 73 9 5   102.09   -40 LegendNANA
13:00 -34.6 -38.0 72 9 6   102.09   -42 LegendNANA
14:00 -34.8 -38.2 71 10 8   102.08   -44 LegendNANA
15:00 -34.5 -37.7 73 4 8   102.07   -43 LegendNANA
16:00 -35.1 -38.5 71 6 4   102.06   -40 LegendNANA
17:00 -34.4 -37.6 72 6 4   102.02   -39 LegendNANA
18:00 -35.5 -39.0 71 35 1   101.99   -37 LegendNANA
19:00 -35.2 -38.7 71 10 4   101.97   -40 LegendNANA
20:00 -35.7 -39.2 70 8 4   101.92   -41 LegendNANA
21:00 -35.2 -38.7 71 9 4   101.87   -40 LegendNANA
22:00 -34.8 -38.1 72 9 8   101.81   -44 LegendNANA
23:00 -35.3 -38.7 72 5 5   101.76   -42 LegendNANA

Notes on Data Quality.

Legend

  • E = Estimated
  • M = Missing
  • NA = Not Available
Date modified: